Home   Weather   Asheville   Past weeks
Flag for USA

Past Weather in Asheville, North Carolina, USA — Yesterday and Last 2 Weeks

Now
74 °F

Partly sunny.


Feels Like: 77 °F
Forecast: 77 / 53 °F
Wind: 15 mph from South

Location: Asheville Regional Airport

Current Time: Apr 18, 2019 at 4:59:28 pm

Latest Report: Apr 18, 2019 at 3:54 pm


Visibility: 10 mi

Pressure: 29.87 "Hg (27.73 "Hg at 647m altitude)

Humidity: 45%

Dew Point: 51 °F

Location of AshevilleLocation

Past Weather in Asheville — Graph

°F

Asheville Temperature Yesterday

Maximum temperature yesterday: 80 °F (at 3:54 pm)
Minimum temperature yesterday: 43 °F (at 6:54 am)
Average temperature yesterday: 63 °F

High & Low Weather Summary for the Past Weeks

 TemperatureHumidityPressure
High80 °F (Apr 17, 3:54 pm)97% (Apr 8, 11:01 pm)30.37 "Hg (Apr 8, 11:01 pm)
Low38 °F (Apr 16, 5:54 am)23% (Apr 4, 12:54 pm)29.50 "Hg (Apr 14, 7:54 pm)
Average61 °F69%30.01 "Hg
* Reported Apr 3 2:54 pm — Apr 18 2:54 pm, Asheville. Weather by CustomWeather, © 2019

Note: Actual official high and low records may vary slightly from our data, if they occured in-between our weather recording intervals... More about our weather records

Advertising

Asheville Weather History for the Previous 24 Hours

Scroll right to see more
 ConditionsComfort  
Time TempWeatherWind HumidityBarometerVisibility
2:54 pm
Thu, Apr 18
74 °FScattered clouds.16 mph46%29.91 "Hg10 mi
1:54 pm72 °FMild.14 mph52%29.93 "Hg10 mi
12:54 pm72 °FScattered clouds.14 mph52%29.95 "Hg10 mi
11:54 am70 °FPartly sunny.13 mph57%29.98 "Hg10 mi
10:54 am69 °FSunny.15 mph59%29.98 "Hg10 mi
9:54 am67 °FSunny.17 mph63%29.98 "Hg10 mi
7:54 am61 °FSunny.6 mph72%29.98 "Hg10 mi
6:54 am61 °FSunny.5 mph72%29.95 "Hg10 mi
5:54 am61 °FClear.3 mph70%29.94 "Hg10 mi
4:54 am62 °FClear.8 mph67%29.94 "Hg10 mi
3:54 am63 °FClear.5 mph63%29.92 "Hg10 mi
2:54 am64 °FPassing clouds.8 mph61%29.95 "Hg10 mi
1:54 am64 °FClear.12 mph58%29.98 "Hg10 mi
12:54 am65 °FClear.7 mph52%30.01 "Hg10 mi
11:54 pm
Wed, Apr 17
66 °FClear.No wind47%30.01 "Hg10 mi
10:54 pm65 °FClear.6 mph51%30.03 "Hg10 mi
9:54 pm66 °FClear.9 mph49%30.03 "Hg10 mi
8:54 pm69 °FClear.13 mph41%30.01 "Hg10 mi
7:54 pm71 °FSunny.16 mph38%30.00 "Hg10 mi
6:54 pm74 °FSunny.15 mph35%30.01 "Hg10 mi
5:54 pm75 °FSunny.13 mph34%30.00 "Hg10 mi
4:54 pm79 °FSunny.16 mph29%29.99 "Hg10 mi
Weather by CustomWeather, © 2019

See weather overview